#�ϑ�����,���ϕ���,���ϕ���,�ő啗��,�ő啗����������,�ő�u�ԕ���,�ő�u�ԕ�����������
#(�N����),(m/s)   ,(16����),(m/s)   ,(16����)        ,(m/s)       ,(16����)            
2012/1/31 8:28,0.5,8,0.6,10,0.8,9
2012/1/31 8:29,0.2,7,0.4,10,0.5,7
2012/1/31 8:30,0.4,8,0.4,10,1.6,9
2012/1/31 8:31,0.6,9,0.6,10,1.9,10
2012/1/31 8:32,0.7,9,0.7,9,2.1,9
2012/1/31 8:33,0.9,10,0.9,10,3.8,9
2012/1/31 8:34,1.2,10,1.2,10,3.2,10
2012/1/31 8:35,1.4,10,1.4,10,4.4,9
2012/1/31 8:36,1.6,10,1.6,10,3.6,10
2012/1/31 8:37,1.6,10,1.6,10,3.5,9
2012/1/31 8:38,1.7,10,1.7,10,4.2,9
2012/1/31 8:39,1.9,10,1.9,10,4.8,9
2012/1/31 8:40,2.1,10,2.1,10,3.8,9
2012/1/31 8:41,2.2,10,2.2,10,3.7,9
2012/1/31 8:42,2.1,10,2.2,10,2,10
2012/1/31 8:43,2.2,10,2.2,10,4.8,10
2012/1/31 8:44,2.2,10,2.2,10,4.3,9
2012/1/31 8:45,2.2,10,2.3,10,4.4,10
2012/1/31 8:46,2.3,10,2.3,10,5.2,10
2012/1/31 8:47,2.4,10,2.4,10,4.4,10
2012/1/31 8:48,2.3,10,2.4,10,4.2,9
2012/1/31 8:49,2.4,10,2.4,10,5,9
2012/1/31 8:50,2.5,10,2.5,10,4.5,11
2012/1/31 8:51,2.4,10,2.5,10,4.2,9
2012/1/31 8:52,2.5,10,2.5,10,3.3,9
2012/1/31 8:53,2.5,10,2.5,10,3.6,8
2012/1/31 8:54,2.3,10,2.5,10,2.9,10
2012/1/31 8:55,2.2,10,2.3,10,3.8,11
2012/1/31 8:56,2.1,10,2.2,10,4.2,8
2012/1/31 8:57,2.1,10,2.1,10,5.6,10
2012/1/31 8:58,2.2,10,2.2,10,4.3,9
2012/1/31 8:59,2.2,10,2.3,10,5.5,9
2012/1/31 9:00,2,10,2.2,10,4.2,10
2012/1/31 9:01,2.1,10,2.1,10,5.1,9
2012/1/31 9:02,2.3,10,2.3,10,6,9
2012/1/31 9:03,2.4,10,2.4,10,5.4,8
2012/1/31 9:04,2.6,10,2.6,10,4.2,10
2012/1/31 9:05,2.7,10,2.7,10,4.7,9
2012/1/31 9:06,2.8,10,2.8,10,6.2,10
2012/1/31 9:07,2.8,10,2.8,10,6.9,9
2012/1/31 9:08,2.9,10,2.9,10,5.8,10
2012/1/31 9:09,3,10,3,10,6.5,9
2012/1/31 9:10,3.2,10,3.2,10,6,10
2012/1/31 9:11,3.4,10,3.4,10,6.2,10
2012/1/31 9:12,3.5,10,3.5,10,6.7,10
2012/1/31 9:13,3.5,10,3.6,10,6.3,10
2012/1/31 9:14,3.6,10,3.6,10,6.4,10
2012/1/31 9:15,3.8,10,3.8,10,6.9,10
2012/1/31 9:16,4,10,4,10,6.5,10
2012/1/31 9:17,4,10,4,10,5.7,8
2012/1/31 9:18,3.9,10,4.1,10,4.8,9
2012/1/31 9:19,3.8,10,3.9,10,5.5,9
2012/1/31 9:20,3.8,10,3.9,10,5.6,10
2012/1/31 9:21,3.8,10,3.8,10,6.2,10
2012/1/31 9:22,3.6,10,3.8,10,5.4,9
2012/1/31 9:23,3.6,10,3.7,10,5.7,9
2012/1/31 9:24,3.5,10,3.6,10,5.1,8
2012/1/31 9:25,3.4,10,3.5,10,5.8,9
2012/1/31 9:26,3.2,10,3.4,10,5.6,9
2012/1/31 9:27,3.2,10,3.2,10,6.1,9
2012/1/31 9:28,3.3,10,3.4,10,6.1,10
2012/1/31 9:29,3.4,10,3.4,10,6.5,11
2012/1/31 9:30,3.4,10,3.5,10,6.5,10
2012/1/31 9:31,3.4,10,3.4,10,6.1,10
2012/1/31 9:32,3.3,10,3.5,10,5.4,9
2012/1/31 9:33,3.3,10,3.3,10,4.8,10
2012/1/31 9:34,3.3,10,3.3,10,5.2,10
2012/1/31 9:35,3.4,10,3.4,10,6.1,10
2012/1/31 9:36,3.5,10,3.5,10,5.7,11
2012/1/31 9:37,3.5,10,3.5,10,6,10
2012/1/31 9:38,3.4,10,3.5,10,6.3,10
2012/1/31 9:39,3.4,10,3.5,10,6.3,10
2012/1/31 9:40,3.4,10,3.4,10,4.8,11
2012/1/31 9:41,3.4,10,3.5,10,5.2,10
2012/1/31 9:42,3.6,10,3.6,10,4.7,10
2012/1/31 9:43,3.6,10,3.6,10,3.6,10
2012/1/31 9:44,3.5,10,3.6,10,3,8
2012/1/31 9:45,3.2,10,3.5,10,3.8,9
2012/1/31 9:46,3.1,10,3.2,10,5.4,9
2012/1/31 9:47,3,10,3.1,10,5.2,9
2012/1/31 9:48,2.8,10,3,10,4.4,10
2012/1/31 9:49,2.6,10,2.8,10,5.7,10
2012/1/31 9:50,2.5,10,2.6,10,4.5,10
2012/1/31 9:51,2.5,10,2.5,10,4.4,11
2012/1/31 9:52,2.4,10,2.4,10,6.1,9
2012/1/31 9:53,2.5,10,2.5,10,7,8
2012/1/31 9:54,2.6,10,2.6,10,6.2,9
2012/1/31 9:55,2.6,10,2.6,10,5.7,9
2012/1/31 9:56,2.6,10,2.7,10,5.1,9
2012/1/31 9:57,2.7,10,2.8,10,7.2,9
2012/1/31 9:58,2.8,9,2.8,10,4.7,9
2012/1/31 9:59,2.9,10,2.9,10,5.5,10
2012/1/31 10:00,2.8,10,2.9,10,4.4,8
2012/1/31 10:01,2.7,10,2.8,10,5,10
2012/1/31 10:02,2.8,10,2.8,10,5.1,10
2012/1/31 10:03,2.8,10,2.8,10,4.4,10
2012/1/31 10:04,2.8,10,2.9,10,4.7,9
2012/1/31 10:05,3,10,3,10,6,10
2012/1/31 10:06,3,10,3.1,10,5.5,10
2012/1/31 10:07,2.9,10,3,10,3.7,9
2012/1/31 10:08,3,10,3,10,5,10
2012/1/31 10:09,3,10,3,10,4.4,10
2012/1/31 10:10,3.1,10,3.1,10,3.5,11
2012/1/31 10:11,3,10,3.1,10,3.5,10
2012/1/31 10:12,2.8,10,3,10,3.1,9
2012/1/31 10:13,2.7,10,2.8,10,4.8,10
2012/1/31 10:14,2.7,10,2.7,10,4.4,10
2012/1/31 10:15,2.5,10,2.7,10,3.7,9
2012/1/31 10:16,2.5,10,2.5,10,4.7,12
2012/1/31 10:17,2.6,10,2.6,10,4.8,9
2012/1/31 10:18,2.6,10,2.6,10,4.1,10
2012/1/31 10:19,2.5,11,2.5,10,3.5,10
2012/1/31 10:20,2.5,11,2.5,10,4.3,10
2012/1/31 10:21,2.5,11,2.5,10,3.7,10
2012/1/31 10:22,2.4,11,2.5,10,1.6,13
2012/1/31 10:23,2.3,11,2.4,10,1.1,9
2012/1/31 10:24,2.2,11,2.3,10,5.5,9
2012/1/31 10:25,2.2,11,2.2,10,4.4,9
2012/1/31 10:26,2.1,11,2.2,10,5.5,9
2012/1/31 10:27,2.1,11,2.1,10,4.2,9
2012/1/31 10:28,2,11,2.1,10,3.6,8
2012/1/31 10:29,2,10,2,11,4.8,9
2012/1/31 10:30,1.8,10,2,11,2.9,8
2012/1/31 10:31,1.7,10,1.8,11,2.5,9
2012/1/31 10:32,1.8,9,1.8,11,3.1,8
2012/1/31 10:33,2,9,2,11,3.7,12
2012/1/31 10:34,1.9,9,2,11,2.5,9
2012/1/31 10:35,1.8,9,1.9,11,2.2,8
2012/1/31 10:36,1.6,9,1.8,11,1.1,6
2012/1/31 10:37,1.4,9,1.6,11,1.8,11
2012/1/31 10:38,1.3,9,1.4,11,3.8,8
2012/1/31 10:39,1.4,9,1.4,10,3.7,8
2012/1/31 10:40,1.5,9,1.5,9,3.3,8
2012/1/31 10:41,1.5,8,1.5,9,3.1,7
2012/1/31 10:42,1.5,8,1.5,9,2.6,8
2012/1/31 10:43,1.3,8,1.4,9,2,8
2012/1/31 10:44,1.3,8,1.3,9,2.9,9
2012/1/31 10:45,1.4,8,1.4,9,4.5,10
2012/1/31 10:46,1.7,8,1.7,8,5.1,8
2012/1/31 10:47,1.8,8,1.8,8,3.2,9
2012/1/31 10:48,1.7,8,1.8,8,2.5,7
2012/1/31 10:49,1.6,8,1.7,8,3.5,8
2012/1/31 10:50,1.6,8,1.6,8,4.8,8
2012/1/31 10:51,1.6,8,1.7,8,2.6,8
2012/1/31 10:52,1.6,8,1.6,8,2.5,9
2012/1/31 10:53,1.6,9,1.7,8,2.4,8
2012/1/31 10:54,1.5,9,1.6,8,1.1,11
2012/1/31 10:55,1.4,9,1.5,8,1.4,16
2012/1/31 10:56,1.3,9,1.3,8,3,13
2012/1/31 10:57,1.2,10,1.3,8,2,14
2012/1/31 10:58,1.3,10,1.3,8,2.2,14
2012/1/31 10:59,1.2,10,1.3,9,1.1,8
2012/1/31 11:00,1,10,1.2,9,1.8,6
2012/1/31 11:01,1,10,1,8,2,6
2012/1/31 11:02,1,8,1.1,8,2.2,5
2012/1/31 11:03,1,4,1,9,0.8,3
2012/1/31 11:04,1,3,1,8,0.8,2
2012/1/31 11:05,1,4,1,9,1.3,4
2012/1/31 11:06,0.9,5,1,9,1.5,6
2012/1/31 11:07,0.8,5,0.9,10,0.9,11
2012/1/31 11:08,0.7,5,0.7,10,1,3
2012/1/31 11:09,0.7,5,0.7,11,1.4,7
2012/1/31 11:10,0.7,5,0.7,10,1.6,8
2012/1/31 11:11,0.6,5,0.7,10,1.9,10
2012/1/31 11:12,0.5,6,0.6,8,2.2,9
2012/1/31 11:13,0.6,6,0.6,3,1.9,5
2012/1/31 11:14,0.7,6,0.7,3,2.1,6
2012/1/31 11:15,0.7,7,0.7,4,2.1,6
2012/1/31 11:16,0.8,7,0.8,5,2,6
2012/1/31 11:17,0.9,7,0.9,7,1.9,6
2012/1/31 11:18,1,7,1,7,3.1,8
2012/1/31 11:19,1.2,7,1.2,7,3.5,8
2012/1/31 11:20,1.4,7,1.4,7,4.1,9
2012/1/31 11:21,1.7,7,1.7,7,4.7,9
2012/1/31 11:22,1.9,7,1.9,7,4.5,9
2012/1/31 11:23,2,7,2,7,3.3,8
2012/1/31 11:24,2.1,8,2.1,8,5.1,8
2012/1/31 11:25,2.1,8,2.1,8,3,7
2012/1/31 11:26,2.2,8,2.2,8,4.1,6
2012/1/31 11:27,2.3,8,2.3,8,2.4,6
2012/1/31 11:28,2.2,7,2.3,8,1.6,3
2012/1/31 11:29,2.1,7,2.2,8,2.4,4
2012/1/31 11:30,1.9,7,2.1,8,1.1,1
2012/1/31 11:31,1.7,6,1.9,8,1.1,8
2012/1/31 11:32,1.5,5,1.7,8,1.9,16
2012/1/31 11:33,1.4,5,1.5,8,3,16
2012/1/31 11:34,1.3,4,1.4,8,3.5,1
2012/1/31 11:35,1.5,3,1.5,8,3.7,1
2012/1/31 11:36,1.4,3,1.5,8,3.3,2
2012/1/31 11:37,1.4,2,1.4,8,2.9,16
2012/1/31 11:38,1.4,2,1.4,7,2.4,3
2012/1/31 11:39,1.4,2,1.4,7,1.5,3
2012/1/31 11:40,1.4,2,1.4,6,1.1,6
2012/1/31 11:41,1.4,2,1.4,6,1.8,3
2012/1/31 11:42,1.5,2,1.5,5,1.8,4
2012/1/31 11:43,1.4,2,1.5,3,1.5,8
2012/1/31 11:44,1.2,3,1.4,3,0.8,8
2012/1/31 11:45,1,3,1.2,3,1.6,8
2012/1/31 11:46,1,4,1,2,3.6,8
2012/1/31 11:47,1,5,1,2,3.2,9
2012/1/31 11:48,1.1,6,1.1,2,4.4,10
2012/1/31 11:49,1.2,7,1.2,2,3.3,10
2012/1/31 11:50,1.2,8,1.2,2,2.4,9
2012/1/31 11:51,1.2,8,1.2,2,2.2,9
2012/1/31 11:52,1.2,9,1.2,2,2.2,9
2012/1/31 11:53,1.4,10,1.4,2,4.2,10
2012/1/31 11:54,1.6,10,1.6,10,3.7,9
2012/1/31 11:55,1.7,10,1.7,10,3.1,8
2012/1/31 11:56,1.6,10,1.7,10,2.4,10
2012/1/31 11:57,1.7,10,1.7,10,2.7,10
2012/1/31 11:58,1.5,10,1.6,10,2.2,10
2012/1/31 11:59,1.4,10,1.5,10,1,9
2012/1/31 12:00,1.5,10,1.5,10,2,8
2012/1/31 12:01,1.5,10,1.5,10,3,9
2012/1/31 12:02,1.6,9,1.6,10,4.4,8
2012/1/31 12:03,1.6,9,1.6,10,4.8,8
2012/1/31 12:04,1.7,9,1.7,10,5.4,9
2012/1/31 12:05,1.8,10,1.8,10,3.6,10
2012/1/31 12:06,1.8,9,1.8,10,2.4,9
2012/1/31 12:07,1.7,9,1.8,10,2.1,10
2012/1/31 12:08,1.6,9,1.7,10,0.8,13
2012/1/31 12:09,1.6,10,1.6,10,0.8,11
2012/1/31 12:10,1.6,10,1.6,10,2.2,9
2012/1/31 12:11,1.6,10,1.6,10,3.2,10
2012/1/31 12:12,1.4,10,1.6,10,1.8,8
2012/1/31 12:13,1.5,10,1.5,10,5.6,10
2012/1/31 12:14,1.3,10,1.4,10,3.9,9
2012/1/31 12:15,1.4,10,1.4,10,4.2,9
2012/1/31 12:16,1.4,10,1.4,9,3.3,10
2012/1/31 12:17,1.3,10,1.4,9,1.8,9
2012/1/31 12:18,1.4,10,1.4,9,2,13
2012/1/31 12:19,1.6,11,1.6,10,4.1,14
2012/1/31 12:20,1.9,11,1.9,11,5.7,1
2012/1/31 12:21,2.1,12,2.1,12,6.3,16
2012/1/31 12:22,2.3,13,2.3,13,4.3,16
2012/1/31 12:23,2.4,13,2.4,13,5.2,1
2012/1/31 12:24,2.5,14,2.5,14,5.6,1
2012/1/31 12:25,2.5,15,2.5,14,4.9,1
2012/1/31 12:26,2.6,15,2.6,15,4.7,2
2012/1/31 12:27,2.8,16,2.8,16,4.1,1
2012/1/31 12:28,3,16,3,16,9.2,15
2012/1/31 12:29,3.4,16,3.4,16,9.5,16
2012/1/31 12:30,3.5,16,3.5,16,8.1,15
2012/1/31 12:31,3.6,16,3.6,16,7.4,16
2012/1/31 12:32,3.6,16,3.6,16,4.9,15
2012/1/31 12:33,3.8,16,3.8,16,8.2,16
2012/1/31 12:34,3.9,16,3.9,16,7.2,15
2012/1/31 12:35,4.1,16,4.1,16,6.5,15
2012/1/31 12:36,4,16,4.1,16,3.8,14
2012/1/31 12:37,4.2,15,4.2,15,5.1,1
2012/1/31 12:38,3.9,15,4.2,15,4.4,16
2012/1/31 12:39,3.7,15,3.9,15,4.9,16
2012/1/31 12:40,3.6,15,3.7,15,4.8,15
2012/1/31 12:41,3.4,15,3.5,15,3.9,14
2012/1/31 12:42,3.3,15,3.4,15,4.3,13
2012/1/31 12:43,3.1,15,3.3,15,6.2,12
2012/1/31 12:44,3,14,3.1,15,4.2,13
2012/1/31 12:45,2.9,14,3,15,3.8,10
2012/1/31 12:46,2.7,14,2.8,15,2.4,15
2012/1/31 12:47,2.4,14,2.7,15,1,15
2012/1/31 12:48,2.7,14,2.7,15,11.5,10
2012/1/31 12:49,2.8,13,2.8,15,6.9,10
2012/1/31 12:50,2.5,13,2.7,15,1.5,13
2012/1/31 12:51,2.4,12,2.5,15,3.9,10
2012/1/31 12:52,2.4,12,2.5,15,5.2,9
2012/1/31 12:53,2.4,11,2.4,15,7.7,9
2012/1/31 12:54,2.3,11,2.4,14,3.6,11
2012/1/31 12:55,2.4,11,2.4,14,7.8,9
2012/1/31 12:56,2.7,10,2.7,13,6.7,12
2012/1/31 12:57,3.1,10,3.1,10,7,10
2012/1/31 12:58,3.1,10,3.2,10,6.2,10
2012/1/31 12:59,2.9,10,3.1,10,5.1,10
2012/1/31 13:00,3.1,10,3.1,10,3.3,9
2012/1/31 13:01,3.2,10,3.2,10,4.3,11
2012/1/31 13:02,3.2,10,3.2,10,2.6,12
2012/1/31 13:03,2.8,10,3.1,10,1.4,6
2012/1/31 13:04,2.8,10,2.8,10,4.9,13
2012/1/31 13:05,2.8,10,2.8,10,4.7,8
2012/1/31 13:06,2.7,10,2.8,10,6.9,10
2012/1/31 13:07,2.7,10,2.7,10,5.4,10
2012/1/31 13:08,2.5,10,2.7,10,5.5,10
2012/1/31 13:09,2.5,10,2.5,10,3.3,12
2012/1/31 13:10,2.5,10,2.5,10,3.9,11
2012/1/31 13:11,2.3,10,2.5,10,2.4,10
2012/1/31 13:12,2.3,10,2.3,10,3.8,10
2012/1/31 13:13,2.5,10,2.5,10,4.4,10
2012/1/31 13:14,2.5,10,2.6,10,3.7,10
2012/1/31 13:15,2.5,10,2.5,10,2.4,8
2012/1/31 13:16,2.3,10,2.5,10,3.1,10
2012/1/31 13:17,2.1,10,2.3,10,4.3,10
2012/1/31 13:18,2,10,2.1,10,3.5,10
2012/1/31 13:19,2,10,2.1,10,4.1,8
2012/1/31 13:20,1.9,10,2,10,2.7,10
2012/1/31 13:21,1.8,10,1.9,10,2.6,8
2012/1/31 13:22,1.8,9,1.8,10,2.9,7
2012/1/31 13:23,1.7,10,1.8,10,4.9,16
2012/1/31 13:24,1.8,10,1.8,10,5.8,16
2012/1/31 13:25,1.8,10,1.8,10,4.1,16
2012/1/31 13:26,1.8,10,1.8,10,2.4,10
2012/1/31 13:27,1.6,11,1.7,10,1.1,11
2012/1/31 13:28,1.5,11,1.6,10,0.9,10
2012/1/31 13:29,1.4,12,1.5,10,1.6,2
2012/1/31 13:30,1.3,12,1.4,10,1.4,16
2012/1/31 13:31,1.3,13,1.3,10,2.4,10
2012/1/31 13:32,1.2,13,1.3,9,1.4,13
2012/1/31 13:33,1.2,13,1.2,10,1.3,11
2012/1/31 13:34,0.9,13,1.2,10,3,14
2012/1/31 13:35,0.9,13,0.9,10,6.7,13
2012/1/31 13:36,1.2,13,1.2,10,7.8,13
2012/1/31 13:37,1.4,13,1.4,11,4.8,11
2012/1/31 13:38,1.5,13,1.5,11,2.9,8
2012/1/31 13:39,1.6,12,1.6,12,4.9,10
2012/1/31 13:40,1.9,12,1.9,12,7.1,12
2012/1/31 13:41,2.3,12,2.3,12,6.5,12
2012/1/31 13:42,2.5,12,2.5,12,5.1,9
2012/1/31 13:43,2.7,12,2.7,12,6.2,10
2012/1/31 13:44,2.7,12,2.8,12,4.8,9
2012/1/31 13:45,2.7,11,2.8,12,4.2,9
2012/1/31 13:46,2.7,11,2.7,12,5.6,13
2012/1/31 13:47,2.6,11,2.6,12,4.3,13
2012/1/31 13:48,2.8,11,2.8,12,5.7,13
2012/1/31 13:49,2.9,12,2.9,11,5.4,12
2012/1/31 13:50,2.6,12,2.9,11,3,13
2012/1/31 13:51,2.4,11,2.6,11,3,10
2012/1/31 13:52,2.2,12,2.4,11,3.6,13
2012/1/31 13:53,2.2,12,2.2,11,4.2,15
2012/1/31 13:54,2.2,12,2.2,11,3.1,12
2012/1/31 13:55,2.1,12,2.2,11,1.6,13
2012/1/31 13:56,1.8,13,2,11,2.4,1
2012/1/31 13:57,1.7,12,1.8,11,1.4,9
2012/1/31 13:58,1.5,12,1.6,11,2.9,8
2012/1/31 13:59,1.2,12,1.5,12,1.8,6
2012/1/31 14:00,1.3,12,1.3,12,3.7,9
2012/1/31 14:01,1.3,12,1.4,11,3.7,9
2012/1/31 14:02,1.3,12,1.3,12,5,10
2012/1/31 14:03,1.4,11,1.4,12,4.5,10
2012/1/31 14:04,1.5,11,1.5,12,6.5,10
2012/1/31 14:05,1.9,10,1.9,12,7.2,9
2012/1/31 14:06,2.1,10,2.1,10,5.8,11
2012/1/31 14:07,2.7,10,2.7,10,9.4,9
2012/1/31 14:08,3,10,3,10,6.9,10
2012/1/31 14:09,3.3,10,3.3,10,7.7,9
2012/1/31 14:10,3.6,10,3.6,10,7,9
2012/1/31 14:11,3.9,10,3.9,10,8.1,10
2012/1/31 14:12,4.1,10,4.1,10,4.8,10
2012/1/31 14:13,4,10,4.1,10,4.1,12
2012/1/31 14:14,3.8,10,4,10,2.6,10
2012/1/31 14:15,3.5,10,3.8,10,2.9,13
2012/1/31 14:16,3.4,10,3.5,10,3.9,12
2012/1/31 14:17,2.9,11,3.3,10,2.4,15
2012/1/31 14:18,2.6,11,2.8,10,2.7,9
2012/1/31 14:19,2.3,11,2.6,10,2.5,11
2012/1/31 14:20,2,11,2.3,10,3.1,9
2012/1/31 14:21,1.7,11,2,10,3.2,10
2012/1/31 14:22,1.6,11,1.7,10,4.1,9
2012/1/31 14:23,1.6,11,1.6,10,4.1,12
2012/1/31 14:24,1.7,11,1.7,10,4.2,10
2012/1/31 14:25,1.8,11,1.8,10,5.5,9
2012/1/31 14:26,2,11,2,10,7.2,12
2012/1/31 14:27,2.2,11,2.2,11,5.7,12
2012/1/31 14:28,2.4,12,2.4,11,4.9,10
2012/1/31 14:29,2.6,11,2.6,11,5.1,10
2012/1/31 14:30,2.7,11,2.7,11,4.5,9
2012/1/31 14:31,2.8,11,2.8,11,4.1,10
2012/1/31 14:32,2.9,11,2.9,11,6.2,10
2012/1/31 14:33,3,11,3,11,4.8,10
2012/1/31 14:34,3,11,3,11,4.2,11
2012/1/31 14:35,3,11,3.1,11,4.8,9
2012/1/31 14:36,2.8,11,3,11,3.3,9
2012/1/31 14:37,2.6,10,2.7,11,3.3,9
2012/1/31 14:38,2.4,10,2.6,11,3.2,10
2012/1/31 14:39,2.3,10,2.4,11,3.3,10
2012/1/31 14:40,2.1,10,2.3,11,3.3,8
2012/1/31 14:41,2,10,2.1,11,3.2,13
2012/1/31 14:42,1.8,11,2.1,11,1.5,12
2012/1/31 14:43,1.6,11,1.8,11,2.9,10
2012/1/31 14:44,1.5,11,1.6,11,1.6,13
2012/1/31 14:45,1.4,11,1.5,11,2.5,15
2012/1/31 14:46,1.4,12,1.4,11,3.8,16
2012/1/31 14:47,1.7,12,1.7,10,6.7,15
2012/1/31 14:48,1.8,13,1.8,10,5.2,16
2012/1/31 14:49,1.9,14,1.9,10,3.7,15
2012/1/31 14:50,2,14,2,10,3.3,13
2012/1/31 14:51,2.1,14,2.1,11,3.2,14
2012/1/31 14:52,2.2,14,2.2,14,3.6,15
2012/1/31 14:53,2.2,15,2.2,14,3.1,14
2012/1/31 14:54,2.2,15,2.2,14,1.1,1
2012/1/31 14:55,2.2,15,2.2,14,2.5,11
2012/1/31 14:56,2.1,15,2.2,14,2.1,5
2012/1/31 14:57,1.7,15,2,14,1.3,4
2012/1/31 14:58,1.5,15,1.7,14,1,3
2012/1/31 14:59,1.3,15,1.4,14,1.1,9
2012/1/31 15:00,1.1,15,1.3,14,1.5,6
2012/1/31 15:01,1,15,1.1,14,3.5,14
2012/1/31 15:02,1.2,15,1.2,14,6.4,14
2012/1/31 15:03,1.4,15,1.4,15,6.2,15
2012/1/31 15:04,1.4,15,1.4,15,2.6,15
2012/1/31 15:05,1.5,15,1.5,15,2.7,14
2012/1/31 15:06,1.5,15,1.6,15,2.1,16
2012/1/31 15:07,1.6,15,1.6,15,2,13
2012/1/31 15:08,1.7,14,1.7,15,2.5,16
2012/1/31 15:09,1.7,14,1.7,15,1.8,15
2012/1/31 15:10,1.8,14,1.8,14,3.1,12
2012/1/31 15:11,1.9,14,1.9,14,3.3,16
2012/1/31 15:12,1.8,14,1.9,14,3.2,14
2012/1/31 15:13,1.7,14,1.7,14,3.9,16
2012/1/31 15:14,1.9,14,1.9,14,3.7,14
2012/1/31 15:15,1.9,14,1.9,14,3.8,14
2012/1/31 15:16,2.1,14,2.1,14,6,14
2012/1/31 15:17,2.2,14,2.2,14,4.5,15
2012/1/31 15:18,2.3,14,2.3,14,4.1,15
2012/1/31 15:19,2.5,14,2.5,14,5.2,15
2012/1/31 15:20,2.6,15,2.6,15,3.9,15
2012/1/31 15:21,2.7,15,2.7,15,5.1,16
2012/1/31 15:22,2.6,15,2.7,15,3.6,15
2012/1/31 15:23,2.4,15,2.6,15,2.2,16
2012/1/31 15:24,2.4,15,2.4,15,3.8,16
2012/1/31 15:25,2.4,15,2.4,15,3.5,16
2012/1/31 15:26,2.2,15,2.4,15,1.8,15
2012/1/31 15:27,2,15,2.2,15,2.5,15
2012/1/31 15:28,2.1,15,2.1,15,3.6,16
2012/1/31 15:29,2,15,2.1,15,4.1,15
2012/1/31 15:30,2,15,2.1,15,4.2,16
2012/1/31 15:31,2,15,2.1,15,3.9,15
2012/1/31 15:32,2,15,2,15,3.9,1
2012/1/31 15:33,2.1,15,2.1,15,1.9,15
2012/1/31 15:34,2,15,2,15,4.5,16
2012/1/31 15:35,2.2,15,2.2,15,5.5,16
2012/1/31 15:36,2.3,15,2.3,15,4.4,16
2012/1/31 15:37,2.5,16,2.5,16,4.5,16
2012/1/31 15:38,2.6,16,2.6,16,6.1,16
2012/1/31 15:39,2.7,16,2.7,16,4.3,16
2012/1/31 15:40,2.6,16,2.6,16,3,16
2012/1/31 15:41,2.6,16,2.6,16,4.3,14
2012/1/31 15:42,2.5,16,2.6,16,3.8,14
2012/1/31 15:43,2.7,16,2.7,16,5.6,16
2012/1/31 15:44,2.9,16,2.9,16,5.6,15
2012/1/31 15:45,2.9,16,2.9,16,4.9,16
2012/1/31 15:46,2.9,16,2.9,16,4.1,1
2012/1/31 15:47,3,16,3,16,8.3,16
2012/1/31 15:48,3.2,16,3.2,16,7.6,15
2012/1/31 15:49,3.2,16,3.3,16,5.5,15
2012/1/31 15:50,3.2,16,3.2,16,3.8,15
2012/1/31 15:51,3.1,16,3.2,16,3.6,16
2012/1/31 15:52,3.2,16,3.2,16,4.1,15
2012/1/31 15:53,2.9,16,3.2,16,1.6,14
2012/1/31 15:54,2.7,16,2.9,16,2.5,16
2012/1/31 15:55,2.4,16,2.7,16,1.8,15
2012/1/31 15:56,2.3,16,2.4,16,2,2
2012/1/31 15:57,1.9,16,2.3,16,1.1,3
2012/1/31 15:58,1.4,16,1.9,16,0.8,15
2012/1/31 15:59,1.1,16,1.4,16,0.5,11
2012/1/31 16:00,1,15,1.1,16,2.2,14
2012/1/31 16:01,1,15,1.1,16,2.4,14
2012/1/31 16:02,0.8,15,0.9,16,1.1,14
2012/1/31 16:03,0.8,15,0.8,16,1.6,12
2012/1/31 16:04,0.9,14,0.9,16,3,12
2012/1/31 16:05,0.9,14,0.9,16,4.1,1
2012/1/31 16:06,1,14,1,16,3,2
2012/1/31 16:07,1.3,14,1.3,16,4.5,1
2012/1/31 16:08,1.5,15,1.5,14,4.2,16
2012/1/31 16:09,1.8,15,1.8,15,3.6,15
2012/1/31 16:10,1.9,15,1.9,15,3.5,15
2012/1/31 16:11,1.9,15,1.9,15,3.6,15
2012/1/31 16:12,2.3,16,2.3,16,5.2,1
2012/1/31 16:13,2.4,16,2.4,16,4.9,2
2012/1/31 16:14,2.4,16,2.4,16,3.2,15
2012/1/31 16:15,2.5,16,2.5,16,4.5,1
2012/1/31 16:16,2.5,16,2.5,16,4.2,16
2012/1/31 16:17,2.6,16,2.6,16,5.2,16
2012/1/31 16:18,2.5,16,2.6,16,3.1,1
2012/1/31 16:19,2.5,16,2.5,16,4.1,15
2012/1/31 16:20,2.4,16,2.5,16,2.7,15
2012/1/31 16:21,2.4,16,2.4,16,2.5,16
2012/1/31 16:22,2.2,16,2.4,16,2.6,15
2012/1/31 16:23,2.1,16,2.2,16,2.9,16
2012/1/31 16:24,2.2,16,2.2,16,3.8,15
2012/1/31 16:25,2.1,16,2.2,16,3.5,16
2012/1/31 16:26,2.1,16,2.1,16,2.9,16
2012/1/31 16:27,1.9,16,2.1,16,3.1,16
2012/1/31 16:28,1.9,16,2,16,3,1
2012/1/31 16:29,1.9,15,1.9,16,2.6,14
2012/1/31 16:30,1.8,16,1.9,16,1.6,15
2012/1/31 16:31,1.8,16,1.8,16,4.9,15
2012/1/31 16:32,2,16,2,16,4.8,16
2012/1/31 16:33,2,16,2,16,3.7,16
2012/1/31 16:34,2.1,16,2.1,16,4.7,15
2012/1/31 16:35,2.1,16,2.1,16,5.2,15
2012/1/31 16:36,2.2,16,2.2,16,5.1,16
2012/1/31 16:37,2.4,16,2.4,16,6.5,16
2012/1/31 16:38,2.4,16,2.4,16,5.5,16
2012/1/31 16:39,2.6,16,2.6,16,4.5,16
2012/1/31 16:40,2.8,16,2.8,16,3.8,16
2012/1/31 16:41,2.9,16,2.9,16,4.4,15
2012/1/31 16:42,2.9,16,2.9,16,4.5,16
2012/1/31 16:43,2.9,16,2.9,16,3.3,16
2012/1/31 16:44,2.8,16,2.9,16,3.9,15
2012/1/31 16:45,2.8,16,2.9,16,3.1,15
2012/1/31 16:46,2.6,16,2.8,16,2,16
2012/1/31 16:47,2.5,16,2.6,16,3.5,14
2012/1/31 16:48,2.4,16,2.4,16,2.9,15
2012/1/31 16:49,2.3,16,2.4,16,3.1,14
2012/1/31 16:50,2.2,15,2.3,16,3.9,15
2012/1/31 16:51,2.1,15,2.2,16,1.6,16
2012/1/31 16:52,1.8,15,2,16,1.9,15
2012/1/31 16:53,1.7,15,1.8,16,2.1,14
2012/1/31 16:54,1.5,15,1.7,16,2.1,1
2012/1/31 16:55,1.5,15,1.5,16,2.2,1
2012/1/31 16:56,1.5,15,1.5,16,1.8,1
2012/1/31 16:57,1.4,16,1.5,16,1.8,16
2012/1/31 16:58,1.4,16,1.4,16,2.7,15
2012/1/31 16:59,1.3,16,1.4,16,2,16
2012/1/31 17:00,1.2,16,1.3,15,2.1,15
2012/1/31 17:01,1.2,16,1.2,15,1.8,15
2012/1/31 17:02,1.2,16,1.2,15,1.6,15
2012/1/31 17:03,1.2,16,1.2,15,1.5,15
2012/1/31 17:04,1.2,16,1.2,15,1.5,16
2012/1/31 17:05,1.2,15,1.2,15,1.4,15
2012/1/31 17:06,1.1,15,1.2,15,1.6,14
2012/1/31 17:07,1.1,15,1.1,16,1.5,14
2012/1/31 17:08,1,15,1.1,16,0.9,15
2012/1/31 17:09,0.9,14,0.9,16,1.3,15
2012/1/31 17:10,0.8,14,0.9,16,1.1,12
2012/1/31 17:11,0.9,14,0.9,16,2.2,15
2012/1/31 17:12,0.8,14,0.8,16,1.5,15
2012/1/31 17:13,0.8,14,0.8,16,1.4,1
2012/1/31 17:14,0.8,14,0.8,16,1.8,16
2012/1/31 17:15,0.8,14,0.8,15,2,15
2012/1/31 17:16,0.9,14,0.9,15,1.9,15
2012/1/31 17:17,1,15,1,15,2.2,16
2012/1/31 17:18,1.1,15,1.1,15,2.2,15
2012/1/31 17:19,1.2,15,1.2,15,1.9,15
2012/1/31 17:20,1.2,15,1.2,15,2.2,15
2012/1/31 17:21,1.2,15,1.3,15,1.5,15
2012/1/31 17:22,1.2,15,1.3,15,1.6,15
2012/1/31 17:23,1.3,15,1.3,15,1.9,15
2012/1/31 17:24,1.3,15,1.3,15,1.9,15
2012/1/31 17:25,1.3,15,1.3,15,1.9,15
2012/1/31 17:26,1.3,15,1.3,15,1.9,15
2012/1/31 17:27,1.3,15,1.3,15,1.8,16
2012/1/31 17:28,1.2,15,1.2,15,2,15
2012/1/31 17:29,1.2,15,1.2,15,2,15
2012/1/31 17:30,1.2,15,1.2,15,1.8,15
2012/1/31 17:31,1.2,15,1.2,15,2.2,16
2012/1/31 17:32,1.2,15,1.2,15,2,15
2012/1/31 17:33,1.1,15,1.2,15,1.1,16
2012/1/31 17:34,1.1,15,1.1,15,1.8,14
2012/1/31 17:35,1,15,1.1,15,0.3,14
2012/1/31 17:36,0.9,15,1,15,0.6,1
2012/1/31 17:37,0.8,15,0.9,15,1.5,16
2012/1/31 17:38,0.8,16,0.8,15,1.5,1
2012/1/31 17:39,0.8,16,0.8,15,1.9,1
2012/1/31 17:40,0.8,16,0.8,15,2.2,1
2012/1/31 17:41,0.8,16,0.8,15,1.9,2
2012/1/31 17:42,0.9,1,0.9,15,2.2,1
2012/1/31 17:43,1,1,1,15,1.9,1
2012/1/31 17:44,1.1,1,1.1,15,2.6,1
2012/1/31 17:45,1.3,1,1.3,1,2.4,1
2012/1/31 17:46,1.4,1,1.4,1,2.4,1
2012/1/31 17:47,1.5,1,1.5,1,2.1,2
2012/1/31 17:48,1.6,1,1.6,1,2.4,1
2012/1/31 17:49,1.6,1,1.7,1,2.1,1
2012/1/31 17:50,1.7,1,1.7,1,2.4,1
2012/1/31 17:51,1.7,1,1.7,1,2.5,16
2012/1/31 17:52,1.7,1,1.7,1,2.9,16
2012/1/31 17:53,1.8,1,1.8,1,3.3,16
2012/1/31 17:54,1.8,1,1.8,1,3.5,16
2012/1/31 17:55,1.9,1,1.9,1,3.3,16
2012/1/31 17:56,2,1,2,1,3.3,16
2012/1/31 17:57,2,16,2,1,3.1,16
2012/1/31 17:58,2.1,16,2.1,16,3.1,16
2012/1/31 17:59,2.2,16,2.2,16,3,16
2012/1/31 18:00,2.1,16,2.2,16,2.2,16
2012/1/31 18:01,2.2,16,2.2,16,2.7,15
2012/1/31 18:02,2.2,16,2.2,16,2.6,16
2012/1/31 18:03,2.2,16,2.2,16,2.9,15
2012/1/31 18:04,2.1,16,2.2,16,2.1,15
2012/1/31 18:05,2.1,16,2.1,16,2.4,16
2012/1/31 18:06,2,16,2.1,16,2.7,16
2012/1/31 18:07,1.9,16,2,16,2,16
2012/1/31 18:08,1.8,16,1.9,16,2.4,16
2012/1/31 18:09,1.8,16,1.8,16,2.9,16
2012/1/31 18:10,1.8,16,1.8,16,2.9,16
2012/1/31 18:11,1.9,16,1.9,16,3.1,15
2012/1/31 18:12,1.9,16,1.9,16,3,15
2012/1/31 18:13,2,16,2,16,3,15
2012/1/31 18:14,2.1,16,2.1,16,3.5,15
2012/1/31 18:15,2.1,16,2.1,16,3,15
2012/1/31 18:16,2.1,16,2.1,16,3.1,15
2012/1/31 18:17,2.2,16,2.2,16,2.6,15
2012/1/31 18:18,2.2,16,2.2,16,2.1,16
2012/1/31 18:19,2,16,2.1,16,1.6,1
2012/1/31 18:20,2,16,2,16,1.9,1
2012/1/31 18:21,1.9,16,2,16,2.5,1
2012/1/31 18:22,1.9,16,1.9,16,2.7,15
2012/1/31 18:23,1.8,16,1.9,16,2.4,16
2012/1/31 18:24,1.7,16,1.8,16,2.2,16
2012/1/31 18:25,1.7,16,1.7,16,2.1,16
2012/1/31 18:26,1.6,16,1.7,16,1.8,16
2012/1/31 18:27,1.5,16,1.6,16,1.9,16
2012/1/31 18:28,1.4,16,1.5,16,1.9,16
2012/1/31 18:29,1.4,16,1.4,16,1.9,15
2012/1/31 18:30,1.4,16,1.4,16,1.8,15
2012/1/31 18:31,1.4,16,1.4,16,2.1,16
2012/1/31 18:32,1.3,16,1.3,16,2.9,15
2012/1/31 18:33,1.3,16,1.3,16,2.6,15
2012/1/31 18:34,1.4,16,1.4,16,3.1,15
2012/1/31 18:35,1.4,16,1.4,16,2.9,15
2012/1/31 18:36,1.5,16,1.5,16,2.5,16
2012/1/31 18:37,1.6,16,1.6,16,2.6,15
2012/1/31 18:38,1.7,15,1.7,16,2.9,16
2012/1/31 18:39,1.7,15,1.8,15,2.7,15
2012/1/31 18:40,1.9,15,1.9,15,2.7,15
2012/1/31 18:41,2,15,2,15,3,16
2012/1/31 18:42,2,15,2,15,2.7,15
2012/1/31 18:43,2,15,2,15,3,15
2012/1/31 18:44,1.9,15,2,15,2.5,15
2012/1/31 18:45,1.9,15,1.9,15,2.4,15
2012/1/31 18:46,1.8,15,1.9,15,1.8,15
2012/1/31 18:47,1.8,15,1.8,15,2.1,15
2012/1/31 18:48,1.7,15,1.8,15,2,15
2012/1/31 18:49,1.7,15,1.7,15,2.2,15
2012/1/31 18:50,1.7,15,1.7,15,2.7,15
2012/1/31 18:51,1.6,15,1.6,15,2.7,15
2012/1/31 18:52,1.7,15,1.7,15,2.6,15
2012/1/31 18:53,1.6,15,1.7,15,2.5,15
2012/1/31 18:54,1.6,15,1.7,15,2.7,15
2012/1/31 18:55,1.6,15,1.6,15,2.2,15
2012/1/31 18:56,1.7,15,1.7,15,1.9,16
2012/1/31 18:57,1.7,15,1.7,15,2.1,16
2012/1/31 18:58,1.7,15,1.7,15,1.6,15
2012/1/31 18:59,1.6,15,1.7,15,1.5,1
2012/1/31 19:00,1.5,15,1.7,15,1.5,16
2012/1/31 19:01,1.5,16,1.5,15,2,15
2012/1/31 19:02,1.4,16,1.5,15,1.9,16
2012/1/31 19:03,1.3,16,1.4,15,1.6,16
2012/1/31 19:04,1.3,16,1.3,15,1.8,16
2012/1/31 19:05,1.2,16,1.3,15,1.6,1
2012/1/31 19:06,1.2,16,1.3,15,1.5,1
2012/1/31 19:07,1.2,16,1.2,15,1.5,1
2012/1/31 19:08,1.2,16,1.2,15,1.8,2
2012/1/31 19:09,1.2,1,1.2,15,1.9,1
2012/1/31 19:10,1.3,1,1.3,15,2.1,1
2012/1/31 19:11,1.4,1,1.4,16,2.1,1
2012/1/31 19:12,1.4,1,1.4,16,2.4,16
2012/1/31 19:13,1.5,1,1.5,1,2.6,15
2012/1/31 19:14,1.6,1,1.6,1,2.7,16
2012/1/31 19:15,1.6,1,1.6,1,2.9,15
2012/1/31 19:16,1.8,16,1.8,16,3.5,16
2012/1/31 19:17,1.8,16,1.8,16,2.5,16